When you browse on this site, cookies collect data to enhance your experience and personalize the content and advertising you see.
Visit our Privacy Policy to learn more. By continuing to use the site, you agree to this use of cookies and data.
  • In Österreich
  • Länderverzeichnis
  • Für 7 Tage
  • Wassertemperatur
  • Wetterkarte
  • News
  • Widgets
  • user-avatar
    Anmelden

    Stündliche Wetter Pachuca de Soto

    Heute, 21 Oktober, Montag

    Zeit Temperatur Niederschläge Wind Luftdruck Luftfeuchtigkeit
    00:00 +14°C° 0 mm 2 m/S 570 mmHg 78%
    01:00 +14°C° 0 mm 2 m/S 570 mmHg 79%
    02:00 +13°C° 0 mm 2 m/S 570 mmHg 80%
    03:00 +13°C° 0 mm 2 m/S 570 mmHg 82%
    04:00 +13°C° 0 mm 2 m/S 570 mmHg 83%
    05:00 +13°C° 0 mm 2 m/S 570 mmHg 84%
    06:00 +15°C° 0 mm 2 m/S 571 mmHg 78%
    07:00 +16°C° 0 mm 1 m/S 572 mmHg 73%
    08:00 +19°C° 0 mm 1 m/S 573 mmHg 68%
    09:00 +20°C° 0.1 mm 1 m/S 574 mmHg 62%
    10:00 +22°C° 0.1 mm 1 m/S 574 mmHg 57%
    11:00 +23°C° 0.1 mm 1 m/S 575 mmHg 52%
    12:00 +23°C° 0.8 mm 2 m/S 574 mmHg 53%
    13:00 +23°C° 0.8 mm 2 m/S 574 mmHg 54%
    14:00 +23°C° 0.8 mm 2 m/S 573 mmHg 55%
    15:00 +20°C° 0.6 mm 2 m/S 573 mmHg 61%
    16:00 +19°C° 0.6 mm 2 m/S 572 mmHg 67%
    17:00 +18°C° 0.6 mm 3 m/S 572 mmHg 73%
    18:00 +17°C° 0.1 mm 2 m/S 572 mmHg 76%
    19:00 +16°C° 0.1 mm 2 m/S 572 mmHg 79%
    20:00 +15°C° 0.1 mm 2 m/S 573 mmHg 82%
    21:00 +15°C° 0 mm 2 m/S 572 mmHg 84%
    22:00 +14°C° 0 mm 2 m/S 572 mmHg 85%
    23:00 +14°C° 0 mm 2 m/S 572 mmHg 87%

    Morgen, 22 Oktober, Dienstag

    Zeit Temperatur Niederschläge Wind Luftdruck Luftfeuchtigkeit
    00:00 +14°C° 0 mm 2 m/S 572 mmHg 89%
    01:00 +13°C° 0 mm 1 m/S 572 mmHg 90%
    02:00 +13°C° 0 mm 1 m/S 572 mmHg 92%
    03:00 +13°C° 0.1 mm 1 m/S 572 mmHg 93%
    04:00 +13°C° 0.1 mm 1 m/S 572 mmHg 94%
    05:00 +13°C° 0.1 mm 1 m/S 572 mmHg 95%
    06:00 +14°C° 0 mm 1 m/S 573 mmHg 91%
    07:00 +15°C° 0 mm 1 m/S 574 mmHg 87%
    08:00 +16°C° 0 mm 1 m/S 574 mmHg 83%
    09:00 +16°C° 0.3 mm 2 m/S 574 mmHg 80%
    10:00 +17°C° 0.3 mm 2 m/S 575 mmHg 78%
    11:00 +18°C° 0.3 mm 3 m/S 575 mmHg 75%
    12:00 +18°C° 0.2 mm 3 m/S 574 mmHg 75%
    13:00 +18°C° 0.2 mm 4 m/S 574 mmHg 74%
    14:00 +18°C° 0.2 mm 4 m/S 573 mmHg 74%
    15:00 +15°C° 0.1 mm 4 m/S 573 mmHg 78%
    16:00 +14°C° 0.1 mm 4 m/S 573 mmHg 82%
    17:00 +13°C° 0.1 mm 3 m/S 572 mmHg 86%
    18:00 +13°C° 0 mm 3 m/S 573 mmHg 88%
    19:00 +13°C° 0 mm 2 m/S 573 mmHg 90%
    20:00 +13°C° 0 mm 2 m/S 573 mmHg 92%
    21:00 +13°C° 0.1 mm 1 m/S 573 mmHg 92%
    22:00 +13°C° 0.1 mm 1 m/S 573 mmHg 93%
    23:00 +12°C° 0.1 mm 1 m/S 573 mmHg 94%

    übermorgen, 23 Oktober, Mittwoch

    Zeit Temperatur Niederschläge Wind Luftdruck Luftfeuchtigkeit
    00:00 +12°C° 0.1 mm 1 m/S 573 mmHg 94%
    01:00 +13°C° 0.1 mm 1 m/S 573 mmHg 93%
    02:00 +13°C° 0.1 mm 1 m/S 572 mmHg 92%
    03:00 +13°C° 0.1 mm 1 m/S 572 mmHg 92%
    04:00 +12°C° 0.1 mm 1 m/S 572 mmHg 92%
    05:00 +12°C° 0.1 mm 1 m/S 572 mmHg 91%
    06:00 +13°C° 0 mm 1 m/S 573 mmHg 87%
    07:00 +14°C° 0 mm 1 m/S 573 mmHg 82%
    08:00 +15°C° 0 mm 1 m/S 574 mmHg 77%
    09:00 +16°C° 0 mm 2 m/S 574 mmHg 73%
    10:00 +17°C° 0 mm 2 m/S 574 mmHg 70%
    11:00 +18°C° 0 mm 3 m/S 574 mmHg 66%
    12:00 +18°C° 0.1 mm 3 m/S 574 mmHg 65%
    13:00 +18°C° 0.1 mm 3 m/S 573 mmHg 64%
    14:00 +19°C° 0.1 mm 3 m/S 573 mmHg 63%
    15:00 +17°C° 0 mm 3 m/S 572 mmHg 69%
    16:00 +16°C° 0 mm 3 m/S 572 mmHg 75%
    17:00 +14°C° 0 mm 3 m/S 571 mmHg 81%
    18:00 +13°C° 0 mm 3 m/S 571 mmHg 84%
    19:00 +13°C° 0 mm 2 m/S 571 mmHg 88%
    20:00 +12°C° 0 mm 2 m/S 571 mmHg 92%
    21:00 +12°C° 0 mm 1 m/S 571 mmHg 92%
    22:00 +12°C° 0 mm 1 m/S 571 mmHg 92%
    23:00 +11°C° 0 mm 1 m/S 571 mmHg 93%

    24 Oktober, Donnerstag

    Zeit Temperatur Niederschläge Wind Luftdruck Luftfeuchtigkeit
    00:00 +10°C° 0 mm 0 m/S 570 mmHg 92%
    01:00 +10°C° 0 mm 0 m/S 570 mmHg 92%
    02:00 +10°C° 0 mm 0 m/S 569 mmHg 91%
    03:00 +10°C° 0 mm 0 m/S 569 mmHg 91%
    04:00 +9°C° 0 mm 0 m/S 569 mmHg 91%
    05:00 +9°C° 0 mm 0 m/S 569 mmHg 92%
    06:00 +11°C° 0 mm 0 m/S 570 mmHg 85%
    07:00 +12°C° 0 mm 0 m/S 571 mmHg 78%
    08:00 +15°C° 0 mm 1 m/S 572 mmHg 72%
    09:00 +18°C° 0 mm 1 m/S 573 mmHg 66%
    10:00 +18°C° 0 mm 2 m/S 573 mmHg 61%
    11:00 +20°C° 0 mm 2 m/S 573 mmHg 55%
    12:00 +20°C° 0.2 mm 3 m/S 573 mmHg 57%
    13:00 +20°C° 0.2 mm 3 m/S 572 mmHg 59%
    14:00 +20°C° 0.2 mm 4 m/S 572 mmHg 61%
    15:00 +18°C° 0.2 mm 3 m/S 571 mmHg 68%
    16:00 +17°C° 0.2 mm 3 m/S 571 mmHg 76%
    17:00 +15°C° 0.2 mm 2 m/S 570 mmHg 83%
    18:00 +15°C° 0 mm 2 m/S 570 mmHg 87%
    19:00 +14°C° 0 mm 2 m/S 571 mmHg 90%
    20:00 +13°C° 0 mm 1 m/S 571 mmHg 93%
    21:00 +13°C° 0 mm 1 m/S 571 mmHg 94%
    22:00 +13°C° 0 mm 1 m/S 571 mmHg 94%
    23:00 +13°C° 0 mm 1 m/S 571 mmHg 94%

    25 Oktober, Freitag

    Zeit Temperatur Niederschläge Wind Luftdruck Luftfeuchtigkeit
    00:00 +13°C° 0 mm 1 m/S 571 mmHg 94%
    01:00 +13°C° 0 mm 1 m/S 570 mmHg 94%
    02:00 +13°C° 0 mm 1 m/S 570 mmHg 93%
    03:00 +13°C° 0 mm 1 m/S 571 mmHg 93%
    04:00 +13°C° 0 mm 1 m/S 571 mmHg 92%
    05:00 +13°C° 0 mm 1 m/S 571 mmHg 91%
    06:00 +13°C° 0.2 mm 1 m/S 572 mmHg 91%
    07:00 +13°C° 0.2 mm 1 m/S 572 mmHg 91%
    08:00 +13°C° 0.2 mm 1 m/S 572 mmHg 91%
    09:00 +13°C° 0.9 mm 1 m/S 572 mmHg 91%
    10:00 +13°C° 0.9 mm 2 m/S 572 mmHg 91%
    11:00 +12°C° 0.9 mm 3 m/S 572 mmHg 91%
    12:00 +12°C° 0.8 mm 3 m/S 572 mmHg 91%
    13:00 +11°C° 0.8 mm 3 m/S 571 mmHg 91%
    14:00 +11°C° 0.8 mm 4 m/S 571 mmHg 91%
    15:00 +11°C° 0.4 mm 4 m/S 571 mmHg 91%
    16:00 +10°C° 0.4 mm 3 m/S 571 mmHg 92%
    17:00 +10°C° 0.4 mm 3 m/S 572 mmHg 93%
    18:00 +10°C° 0.3 mm 3 m/S 572 mmHg 93%
    19:00 +10°C° 0.3 mm 3 m/S 572 mmHg 93%
    20:00 +10°C° 0.3 mm 3 m/S 573 mmHg 93%
    21:00 +10°C° 0.2 mm 2 m/S 573 mmHg 93%
    22:00 +10°C° 0.2 mm 2 m/S 573 mmHg 93%
    23:00 +10°C° 0.2 mm 2 m/S 573 mmHg 93%

    26 Oktober, Samstag

    Zeit Temperatur Niederschläge Wind Luftdruck Luftfeuchtigkeit
    00:00 +9°C° 0 mm 2 m/S 573 mmHg 92%
    01:00 +9°C° 0 mm 2 m/S 572 mmHg 92%
    02:00 +9°C° 0 mm 2 m/S 572 mmHg 92%
    03:00 +9°C° 0 mm 2 m/S 572 mmHg 92%
    04:00 +10°C° 0 mm 1 m/S 572 mmHg 92%
    05:00 +10°C° 0 mm 1 m/S 572 mmHg 92%
    06:00 +10°C° 0 mm 1 m/S 572 mmHg 90%
    07:00 +10°C° 0 mm 2 m/S 573 mmHg 87%
    08:00 +10°C° 0 mm 2 m/S 573 mmHg 85%
    09:00 +12°C° 0 mm 2 m/S 573 mmHg 81%
    10:00 +13°C° 0 mm 2 m/S 573 mmHg 78%
    11:00 +14°C° 0 mm 2 m/S 573 mmHg 75%
    12:00 +14°C° 0 mm 2 m/S 573 mmHg 74%
    13:00 +14°C° 0 mm 2 m/S 572 mmHg 73%
    14:00 +14°C° 0 mm 3 m/S 572 mmHg 72%
    15:00 +13°C° 0 mm 3 m/S 572 mmHg 76%
    16:00 +13°C° 0 mm 2 m/S 571 mmHg 80%
    17:00 +12°C° 0 mm 2 m/S 571 mmHg 84%
    18:00 +10°C° 0 mm 2 m/S 571 mmHg 85%
    19:00 +11°C° 0 mm 1 m/S 572 mmHg 86%
    20:00 +10°C° 0 mm 0 m/S 572 mmHg 88%
    21:00 +11°C° 0.1 mm 1 m/S 572 mmHg 87%
    22:00 +11°C° 0.1 mm 1 m/S 572 mmHg 87%
    23:00 +11°C° 0.1 mm 1 m/S 572 mmHg 86%

    27 Oktober, Sonntag

    Zeit Temperatur Niederschläge Wind Luftdruck Luftfeuchtigkeit
    00:00 +11°C° 0 mm 1 m/S 571 mmHg 87%
    01:00 +11°C° 0 mm 1 m/S 571 mmHg 88%
    02:00 +11°C° 0 mm 1 m/S 571 mmHg 89%
    03:00 +11°C° 0 mm 1 m/S 570 mmHg 89%
    04:00 +10°C° 0 mm 1 m/S 570 mmHg 90%
    05:00 +9°C° 0 mm 0 m/S 570 mmHg 90%
    06:00 +11°C° 0 mm 0 m/S 571 mmHg 82%
    07:00 +13°C° 0 mm 0 m/S 573 mmHg 74%
    08:00 +15°C° 0 mm 0 m/S 574 mmHg 67%
    09:00 +18°C° 0 mm 1 m/S 574 mmHg 62%
    10:00 +19°C° 0 mm 2 m/S 575 mmHg 58%
    11:00 +20°C° 0 mm 2 m/S 575 mmHg 54%
    12:00 +20°C° 0.2 mm 3 m/S 574 mmHg 56%
    13:00 +20°C° 0.2 mm 3 m/S 574 mmHg 58%
    14:00 +20°C° 0.2 mm 4 m/S 573 mmHg 60%
    15:00 +18°C° 0.2 mm 3 m/S 573 mmHg 67%
    16:00 +17°C° 0.2 mm 3 m/S 573 mmHg 73%
    17:00 +15°C° 0.2 mm 2 m/S 572 mmHg 79%
    18:00 +15°C° 0 mm 2 m/S 572 mmHg 81%
    19:00 +14°C° 0 mm 1 m/S 572 mmHg 84%
    20:00 +13°C° 0 mm 1 m/S 572 mmHg 86%
    21:00 +13°C° 0 mm 1 m/S 572 mmHg 83%
    22:00 +12°C° 0 mm 1 m/S 572 mmHg 81%
    23:00 +11°C° 0 mm 0 m/S 572 mmHg 78%
    Mehr zeigen